Вернуться в каталог

NOAA 16 DEB

АктивенPO
NORAD 41251·DEBRIS·🇺🇸 United States

Запущен Sep 21, 2000 с Vandenberg Space Force Base

Loading…

Ближайшие Пролёты (ближайшие 24 часа)

TLE

СвежийSource: Space-Track

Эпоха: Sep 12, 2026, 08:45 UTC

1 41251U 00055FB  26255.36493832  .00006192  00000-0  17924-2 0  9994
2 41251  98.9649  40.8240 0039011 226.6721 133.1214 14.44412743554506

Отслеживайте NOAA 16 DEB в реальном времени с AllMySat

Download on the App Store